Home > Weather > Tórshavn > Past weeks

Flag for Faroe Islands Past Weather in Tórshavn, Faroe Islands — Yesterday and Last 2 Weeks

Now
52 °F

Passing clouds.


Feels Like: 52 °F
Forecast: 51 / 53 °F
Wind: 1 mph from South

Location: Soervaag / Vagar

Current Time: Jul 25, 2016 at 3:27:15 AM

Latest Report: Jul 25, 2016 at 2:50 AM


Visibility: N/A

Pressure: 29.89 "Hg

Humidity: 94%

Dew Point: 50 °F

Location of TórshavnLocation

Past Weather in Tórshavn — Graph

°F

Tórshavn Temperature Yesterday

Maximum temperature yesterday: 57 °F (at 5:50 PM)
Minimum temperature yesterday: 52 °F (at 3:20 AM)
Average temperature yesterday: 53 °F

High & Low Weather Summary for the Past Weeks

 TemperatureHumidityPressure
High63 °F (Jul 20, 10:20 AM)100% (Jul 15, 5:20 AM)30.15 "Hg (Jul 15, 5:20 AM)
Low46 °F (Jul 18, 4:50 AM)2% (Jul 13, 4:50 AM)29.50 "Hg (Jul 11, 1:20 AM)
Average52 °F90%29.81 "Hg
* Reported Jul 10 2:20 AM — Jul 25 2:20 AM, Tórshavn, Weather by CustomWeather, © 2016

Note: Actual official high and low records may vary slightly from our data, if they occured in-between our weather recording intervals... More about our weather records

Advertising

Tórshavn Weather History for the Previous 24 Hours

Scroll right to see more
 ConditionsComfort  
Time TempWeatherWind HumidityBarometerVisibility
2:20 AM
Mon, Jul 25
52 °FPassing clouds.1 mph100%29.92 "HgN/A
1:50 AM54 °FPassing clouds.No wind94%29.92 "HgN/A
1:20 AM54 °FOvercast.2 mph94%29.92 "HgN/A
12:50 AM54 °FOvercast.2 mph94%29.92 "HgN/A
12:20 AM54 °FOvercast.3 mph94%29.92 "HgN/A
11:50 PM
Sun, Jul 24
54 °FOvercast.2 mph94%29.92 "HgN/A
11:20 PM54 °FPartly sunny.3 mph94%29.95 "HgN/A
10:50 PM54 °FPartly sunny.3 mph94%29.95 "HgN/A
10:20 PM54 °FPartly sunny.5 mph94%29.95 "HgN/A
9:50 PM54 °FOvercast.3 mph94%29.95 "HgN/A
9:20 PM54 °FPartly sunny.6 mph100%29.95 "HgN/A
8:50 PM54 °FBroken clouds.7 mph100%29.95 "HgN/A
8:20 PM54 °FBroken clouds.2 mph100%29.95 "HgN/A
7:50 PM54 °FMostly cloudy.3 mph100%29.95 "HgN/A
7:20 PM54 °FPartly sunny.6 mph100%29.95 "HgN/A
6:50 PM54 °FPartly sunny.7 mph94%29.95 "Hg4 mi
6:20 PM55 °FPartly sunny.8 mph94%29.95 "HgN/A
5:50 PM57 °FPartly sunny.6 mph88%29.92 "HgN/A
5:20 PM55 °FPartly sunny.5 mph94%29.95 "HgN/A
4:50 PM55 °FPartly sunny.5 mph88%29.95 "HgN/A
4:20 PM55 °FPartly sunny.9 mph94%29.95 "HgN/A
3:50 PM55 °FPartly sunny.9 mph94%29.95 "HgN/A
3:20 PM54 °FSprinkles. Fog.8 mph100%29.95 "Hg2 mi
2:50 PM54 °FSprinkles. Fog.10 mph94%29.95 "Hg3 mi
2:20 PM54 °FPartly sunny.10 mph100%29.95 "HgN/A
1:50 PM54 °FDrizzle. Low clouds.10 mph100%29.95 "Hg4 mi
1:20 PM54 °FDrizzle. Broken clouds.12 mph100%29.92 "Hg2 mi
12:50 PM54 °FRain. Low clouds.12 mph94%29.92 "Hg1 mi
12:20 PM54 °FSprinkles. Broken clouds.10 mph94%29.92 "Hg1 mi
11:50 AM52 °FDrizzle. Fog.12 mph100%29.92 "Hg0 mi
11:20 AM54 °FDrizzle. Fog.10 mph94%29.92 "Hg1 mi
10:50 AM54 °FSprinkles. Partly sunny.12 mph94%29.92 "Hg1 mi
10:20 AM54 °FSprinkles. Fog.13 mph94%29.92 "Hg3 mi
9:50 AM52 °FDrizzle. Fog.13 mph100%29.89 "Hg2 mi
9:20 AM52 °FPartly sunny.14 mph100%29.89 "Hg5 mi
8:50 AM52 °FLow clouds.15 mph100%29.89 "HgN/A
8:20 AM52 °FPartly sunny.15 mph100%29.89 "Hg6 mi
7:50 AM52 °FDrizzle. Partly sunny.14 mph100%29.89 "Hg3 mi
7:20 AM52 °FDrizzle. Low clouds.15 mph100%29.89 "Hg4 mi
6:50 AM54 °FMostly cloudy.15 mph94%29.89 "HgN/A
6:20 AM54 °FLow clouds.14 mph94%29.89 "HgN/A
5:50 AM54 °FSprinkles. Partly sunny.14 mph94%29.89 "HgN/A
5:20 AM52 °FSprinkles. Partly cloudy.10 mph100%29.86 "HgN/A
4:50 AM52 °FLow clouds.12 mph100%29.89 "HgN/A
4:20 AM52 °FPassing clouds.12 mph100%29.89 "HgN/A
3:50 AM52 °FLight rain. Passing clouds.13 mph100%29.89 "Hg1 mi
3:20 AM52 °FDrizzle. Fog.15 mph100%29.89 "Hg0 mi
Weather by CustomWeather, © 2016

See weather overviewHow to use our weather pages